Omaha, IA

11:56 PM CST on December 11, 2017 (GMT -0600)
Eppley Airfield

Weather History for KOMA - July, 2013

Change the Weather History Date:

Wednesday, July 17, 2013

  Actual Average Record
Temperature  
Mean Temperature 84 °F 77 °F  
Max Temperature 94 °F 88 °F 105 °F (1936)
Min Temperature 73 °F 67 °F 53 °F (2009)
Degree Days  
Heating Degree Days 0 0  
Month to date heating degree days 0 0  
Since 1 June heating degree days 16 17  
Since 1 July heating degree days 0 0  
Cooling Degree Days 19 12  
Month to date cooling degree days 229 200  
Year to date cooling degree days 560 512  
Since 1 June cooling degree days 464 430  
Growing Degree Days 33 (Base 50)    
Moisture  
Dew Point 68 °F    
Average Humidity 63    
Maximum Humidity 87    
Minimum Humidity 39    
Precipitation  
Precipitation T in 0.13 in 3.72 in (1977)
Month to date precipitation 0.35 2.11  
Year to date precipitation 19.43 17.57  
Snow  
Snow 0.00 in 0.00 in - ()
Month to date snowfall 0.0 0.0  
Since 1 July snowfall 0.0 0.0  
Snow Depth 0.00 in    
Sea Level Pressure  
Sea Level Pressure 30.22 in    
Wind  
Wind Speed 6 mph (SSE)    
Max Wind Speed 16 mph    
Max Gust Speed 20 mph    
Visibility 10 miles    
Events      
T = Trace of Precipitation, MM = Missing Value Source: NWS Daily Summary

Daily Weather History Graph

Daily Weather History Graph

Search for Another Location

Airport or City:

Trip Planner

Search our weather history database for the weather conditions in past years. The results will help you decide how hot, cold, wet, or windy it might be!

Date:

Astronomy

Jul. 17, 2013 Rise Set
Actual Time 6:05 AM CDT 8:53 PM CDT
Civil Twilight 5:32 AM CDT 9:26 PM CDT
Nautical Twilight 4:51 AM CDT 10:07 PM CDT
Astronomical Twilight 4:04 AM CDT 10:54 PM CDT
Moon 3:43 PM CDT (7/17) 1:14 AM CDT (7/17)
Length of Visible Light 15h 53m
Length of Day
14h 48m
Waxing Gibbous, 67% of the Moon is Illuminated
Jul 17
Waxing Gibbous
Jul 22
Full
Jul 29
Last Quarter
Aug 6
New
Aug 14
First Quarter

Hourly Weather History & Observations

Time (CDT) Temp. Heat Index Dew Point Humidity Pressure Visibility Wind Dir Wind Speed Gust Speed Precip Events Conditions
12:52 AM 79.0 °F - 69.1 °F 72% 30.24 in 10.0 mi SSE 4.6 mph - N/A   Clear
1:52 AM 79.0 °F - 69.1 °F 72% 30.24 in 10.0 mi SE 3.5 mph - N/A   Clear
2:52 AM 77.0 °F - 70.0 °F 79% 30.24 in 10.0 mi Calm Calm - N/A   Clear
3:52 AM 73.9 °F - 69.1 °F 85% 30.25 in 10.0 mi Calm Calm - N/A   Partly Cloudy
4:52 AM 77.0 °F - 69.1 °F 76% 30.25 in 10.0 mi Calm Calm - N/A   Clear
5:52 AM 75.0 °F - 69.1 °F 82% 30.25 in 10.0 mi SE 4.6 mph - N/A   Partly Cloudy
6:52 AM 75.9 °F - 69.1 °F 79% 30.26 in 10.0 mi SSE 3.5 mph - N/A   Clear
7:52 AM 78.1 °F - 70.0 °F 76% 30.27 in 10.0 mi South 4.6 mph - N/A   Clear
8:52 AM 81.0 °F 84.4 °F 70.0 °F 69% 30.28 in 10.0 mi Calm Calm - N/A   Partly Cloudy
9:52 AM 86.0 °F 89.4 °F 68.0 °F 55% 30.27 in 10.0 mi Calm Calm - N/A   Scattered Clouds
10:52 AM 87.1 °F 90.6 °F 68.0 °F 53% 30.27 in 10.0 mi Calm Calm - N/A   Scattered Clouds
11:52 AM 91.0 °F 94.3 °F 66.9 °F 45% 30.26 in 10.0 mi South 6.9 mph - N/A   Partly Cloudy
12:52 PM 91.0 °F 93.0 °F 64.9 °F 42% 30.25 in 10.0 mi South 10.4 mph - N/A   Scattered Clouds
1:52 PM 93.0 °F 95.0 °F 64.9 °F 39% 30.24 in 10.0 mi SSE 10.4 mph 18.4 mph N/A   Scattered Clouds
2:52 PM 93.9 °F 97.0 °F 66.0 °F 40% 30.22 in 10.0 mi SSE 9.2 mph - N/A   Scattered Clouds
3:52 PM 91.0 °F 93.8 °F 66.0 °F 44% 30.20 in 10.0 mi SSW 10.4 mph 18.4 mph N/A   Scattered Clouds
4:52 PM 91.9 °F 95.4 °F 66.9 °F 44% 30.19 in 10.0 mi South 12.7 mph - N/A   Scattered Clouds
5:52 PM 91.0 °F 95.6 °F 69.1 °F 48% 30.17 in 10.0 mi South 10.4 mph - 0.00 in   Scattered Clouds
6:52 PM 91.0 °F 94.3 °F 66.9 °F 45% 30.16 in 10.0 mi South 11.5 mph - N/A   Scattered Clouds
7:52 PM 89.1 °F 92.9 °F 68.0 °F 50% 30.15 in 10.0 mi SSE 9.2 mph - N/A   Partly Cloudy
8:52 PM 87.1 °F 92.0 °F 70.0 °F 57% 30.14 in 10.0 mi SSE 11.5 mph - N/A   Partly Cloudy
9:52 PM 84.0 °F 88.4 °F 70.0 °F 63% 30.15 in 10.0 mi SSE 6.9 mph - N/A   Clear
10:52 PM 82.0 °F 85.9 °F 70.0 °F 67% 30.15 in 10.0 mi SSE 6.9 mph - N/A   Clear
11:52 PM 82.9 °F 87.0 °F 70.0 °F 65% 30.15 in 10.0 mi South 11.5 mph - N/A   Clear